This is the latest recevied weather packets stored in our database for station/object KE8WMS. If no packets are shown the sender has not sent any weather packets the latest 10 day(s).
| Time | Temp. | Humidity | Pressure | Rain* | Wind** | Luminosity | Snow |
|---|---|---|---|---|---|---|---|
| 1777490313 | 8.33° C | 99% | 1006.1 hPa | 0 mm | - | 74 W/m² | - |
| 1777490011 | 8.33° C | 99% | 1005.8 hPa | 0 mm | - | 75 W/m² | - |
| 1777489709 | 8.33° C | 99% | 1005.9 hPa | 0 mm | - | 77 W/m² | - |
| 1777489405 | 8.89° C | 99% | 1005.8 hPa | 0 mm | - | 69 W/m² | - |
| 1777489102 | 8.89° C | 99% | 1006.1 hPa | 0 mm | - | 68 W/m² | - |
| 1777488799 | 8.89° C | 99% | 1006 hPa | 0 mm | - | 70 W/m² | - |
| 1777488497 | 8.89° C | 99% | 1006.1 hPa | 0 mm | - | 72 W/m² | - |
| 1777488194 | 8.89° C | 99% | 1006.3 hPa | 0 mm | - | 88 W/m² | - |
| 1777487892 | 9.44° C | 99% | 1006.1 hPa | 0 mm | - | 71 W/m² | - |
| 1777487590 | 8.89° C | 99% | 1006 hPa | 0 mm | - | 82 W/m² | - |
| 1777487287 | 8.89° C | 99% | 1006 hPa | 0 mm | - | 64 W/m² | - |
| 1777486984 | 8.89° C | 99% | 1006.2 hPa | 0 mm | - | 70 W/m² | - |
| 1777486680 | 8.89° C | 99% | 1006 hPa | 0 mm | - | 87 W/m² | - |
| 1777486378 | 8.89° C | 99% | 1006.1 hPa | 0 mm | - | 101 W/m² | - |
| 1777486075 | 8.89° C | 99% | 1006 hPa | 0 mm | - | 85 W/m² | - |
| 1777485771 | 8.89° C | 99% | 1006.4 hPa | 0 mm | - | 75 W/m² | - |
| 1777485467 | 9.44° C | 99% | 1006.3 hPa | 0 mm | - | 87 W/m² | - |
| 1777485163 | 9.44° C | 99% | 1006 hPa | 0 mm | - | 104 W/m² | - |
| 1777484859 | 9.44° C | 99% | 1006 hPa | 0 mm | - | 104 W/m² | - |
| 1777484557 | 9.44° C | 99% | 1006 hPa | 0 mm | - | 108 W/m² | - |
| 1777484254 | 9.44° C | 99% | 1005.9 hPa | 0 mm | - | 117 W/m² | - |
| 1777483949 | 9.44° C | 99% | 1006 hPa | 0 mm | - | 112 W/m² | - |
| 1777483646 | 9.44° C | 99% | 1005.8 hPa | 0 mm | - | 143 W/m² | - |
| 1777483341 | 9.44° C | 99% | 1006 hPa | 0 mm | - | 150 W/m² | - |
| 1777483037 | 9.44° C | 99% | 1006 hPa | 0 mm | - | 204 W/m² | - |
* Rain latest hour (hover to see other rain measurements)
** Current wind speed in m/s (hover to see current wind gust speed)